"startDT [UTC]","vpos","CH4 [ppm]","stdev(CH4) [ppm]","CO2 [ppm]","stdev(CO2) [ppm]","H2O_reported [%]","stdev(H2O_reported)","CavityPressure [torr]","CavityTemp [C]","OutletValve","CH4_dry [ppm]","CO2_dry [ppm]","DasTemp [C]","EtalonTemp [C]","WarmBoxTemp [C]","MPVPosition","T_ECpre [C]","T_EC1 [C]","T_EC2 [C]","p_inlet [hPa]","p_in [hPa]","p_out [hPa]","T_inlet [C]","RH_inlet [%]","dwpt_inlet [C]","T_vent [C]","RH_vent [%]","dwpt_vent [C]","flow_vent [l min-1]","flow_inlet [l min-1]","dwpt_sample [C]","T_room [C]"
2016-12-05 00:00:00,0.0,1.95407,0.00025,409.204,0.033,0.0302,0.0013,139.998,45.000,31371.26002,1.95465,409.350,30.687,45.073,45.000,0.00,0.06,-272.85,-272.88,-1,521,-940,15.6,1.4,-37.3,16.0,1.4,-36.7,0.55,2.14,-23.0,22.3
2016-12-05 00:01:00,0.0,1.95392,0.00034,409.133,0.053,0.0303,0.0018,139.999,45.000,31372.14922,1.95452,409.284,30.689,45.073,44.999,0.00,0.07,-272.85,-272.88,0,521,-940,15.6,1.4,-37.3,16.0,1.5,-36.5,0.55,1.90,-23.0,22.3
2016-12-05 00:02:00,0.0,1.95394,0.00034,409.155,0.035,0.0309,0.0019,140.002,45.000,31374.48624,1.95453,409.306,30.727,45.073,45.000,0.00,0.06,-272.87,-272.88,-1,521,-940,15.6,1.4,-37.1,16.0,1.5,-36.5,0.55,2.14,-23.0,22.3
2016-12-05 00:03:00,0.0,1.95387,0.00035,409.105,0.046,0.0311,0.0015,140.003,45.000,31374.08443,1.95448,409.259,30.747,45.073,44.999,0.00,0.06,-272.86,-272.88,0,521,-940,15.6,1.4,-37.1,16.0,1.5,-36.3,0.55,1.91,-23.0,22.3
2016-12-05 00:04:00,0.0,1.95363,0.00036,409.102,0.046,0.0320,0.0016,140.001,45.000,31374.38125,1.95425,409.260,30.746,45.073,44.999,0.00,0.07,-272.86,-272.87,-1,520,-940,15.6,1.4,-36.9,16.0,1.5,-36.3,0.55,2.11,-23.0,22.3
2016-12-05 00:05:00,0.0,1.95348,0.00045,409.078,0.035,0.0324,0.0017,139.999,45.000,31373.56631,1.95410,409.237,30.750,45.073,44.999,0.00,0.06,-272.86,-272.89,0,521,-940,15.6,1.5,-36.8,16.0,1.5,-36.2,0.55,1.94,-23.0,22.3
2016-12-05 00:06:00,0.0,1.95360,0.00028,409.073,0.025,0.0327,0.0020,140.000,45.000,31374.68310,1.95421,409.234,30.735,45.073,45.000,0.00,0.06,-272.85,-272.89,-1,520,-940,15.6,1.5,-36.7,16.0,1.5,-36.0,0.55,2.06,-23.0,22.3
2016-12-05 00:07:00,0.0,1.95366,0.00037,409.090,0.031,0.0325,0.0015,140.000,45.000,31375.01952,1.95431,409.249,30.713,45.073,45.000,0.00,0.07,-272.84,-272.88,-0,521,-940,15.6,1.5,-36.6,16.0,1.6,-35.9,0.55,1.98,-23.0,22.3
2016-12-05 00:08:00,0.0,1.95361,0.00037,409.095,0.022,0.0323,0.0020,139.999,45.000,31374.41209,1.95421,409.253,30.729,45.073,45.000,0.00,0.06,-272.85,-272.89,-0,520,-940,15.6,1.5,-36.5,16.0,1.6,-35.9,0.55,2.03,-23.0,22.3
2016-12-05 00:09:00,0.0,1.95352,0.00041,409.058,0.031,0.0341,0.0021,139.999,45.000,31373.97891,1.95418,409.227,30.741,45.073,45.000,0.00,0.06,-272.86,-272.89,-0,521,-940,15.6,1.5,-36.3,16.0,1.6,-35.8,0.55,2.02,-23.0,22.3
2016-12-05 00:10:00,0.0,1.95349,0.00037,409.061,0.034,0.0344,0.0016,139.999,45.000,31375.56650,1.95415,409.230,30.745,45.073,45.000,0.00,0.07,-272.84,-272.89,-0,521,-940,15.6,1.6,-36.1,16.0,1.6,-35.6,0.55,2.00,-23.0,22.3
2016-12-05 00:11:00,0.0,1.95368,0.00035,409.092,0.028,0.0343,0.0022,139.999,45.000,31375.46059,1.95433,409.261,30.747,45.073,45.000,0.00,0.07,-272.86,-272.88,-1,521,-940,15.6,1.6,-36.0,16.0,1.6,-35.4,0.54,2.05,-23.0,22.3
2016-12-05 00:12:00,0.0,1.95439,0.00182,409.178,0.101,0.0359,0.0017,139.998,45.000,31376.94120,1.95480,409.346,30.750,45.073,45.000,0.00,0.06,-272.85,-272.89,0,521,-940,15.7,1.6,-35.8,16.0,1.7,-35.2,0.55,1.96,-23.0,22.3
2016-12-05 00:13:00,0.0,1.96944,0.00456,409.924,0.107,0.0354,0.0015,139.998,45.000,31376.14589,1.96944,410.092,30.750,45.073,45.000,0.00,0.06,-272.85,-272.88,-1,521,-940,15.7,1.6,-35.8,16.0,1.7,-35.1,0.55,2.08,-23.0,22.3
2016-12-05 00:14:00,0.0,1.99295,0.00296,410.011,0.043,0.0350,0.0017,139.999,45.000,31375.84655,1.99351,410.184,30.750,45.073,45.000,0.00,0.07,-272.85,-272.88,0,521,-940,15.6,1.6,-35.9,16.0,1.7,-35.2,0.55,1.95,-23.0,22.3
2016-12-05 00:15:00,0.0,1.97981,0.00329,409.909,0.061,0.0340,0.0016,140.001,45.000,31377.76916,1.98086,410.079,30.751,45.073,45.000,0.00,0.07,-272.86,-272.89,-1,521,-941,15.6,1.6,-36.0,16.0,1.7,-35.3,0.55,2.10,-23.0,22.3
2016-12-05 00:16:00,0.0,1.97642,0.00071,409.825,0.042,0.0342,0.0022,140.001,45.000,31380.28017,1.97711,409.996,30.749,45.073,45.000,0.00,0.06,-272.85,-272.89,0,521,-940,15.7,1.6,-36.0,16.0,1.6,-35.4,0.55,1.92,-23.0,22.3
2016-12-05 00:17:00,0.0,1.97058,0.00288,409.592,0.107,0.0343,0.0018,140.001,45.000,31381.75941,1.97149,409.765,30.750,45.073,45.000,0.00,0.06,-272.85,-272.88,-1,521,-940,15.6,1.6,-36.2,16.0,1.6,-35.5,0.55,2.12,-23.0,22.3
2016-12-05 00:18:00,0.0,1.96787,0.00219,409.357,0.060,0.0334,0.0015,140.001,45.000,31380.88599,1.96832,409.523,30.736,45.073,45.000,0.00,0.06,-272.85,-272.88,0,521,-940,15.7,1.5,-36.2,16.0,1.6,-35.6,0.55,1.91,-23.0,22.3
2016-12-05 00:19:00,0.0,1.97034,0.00158,409.312,0.061,0.0329,0.0012,140.000,45.000,31379.97189,1.97109,409.475,30.742,45.074,45.000,0.00,0.06,-272.86,-272.88,-1,521,-940,15.7,1.5,-36.3,16.0,1.6,-35.6,0.55,2.13,-23.0,22.3
2016-12-05 00:20:00,0.0,1.97145,0.00136,409.127,0.135,0.0327,0.0019,140.000,45.000,31379.78739,1.97209,409.294,30.750,45.073,45.000,0.00,0.07,-272.85,-272.88,-0,521,-940,15.6,1.5,-36.4,16.0,1.6,-35.6,0.55,1.90,-23.0,22.3
2016-12-05 00:21:00,0.0,1.96783,0.00155,408.801,0.090,0.0322,0.0018,140.001,45.000,31382.68910,1.96859,408.963,30.752,45.073,45.000,0.00,0.07,-272.85,-272.88,-0,521,-940,15.6,1.5,-36.5,16.0,1.6,-35.8,0.55,2.13,-23.0,22.3
2016-12-05 00:22:00,0.0,1.96710,0.00111,408.916,0.116,0.0330,0.0018,140.000,45.000,31381.37759,1.96766,409.074,30.755,45.073,45.000,0.00,0.06,-272.85,-272.89,-1,521,-940,15.7,1.5,-36.3,16.0,1.6,-35.8,0.55,1.89,-23.0,22.3
2016-12-05 00:23:00,0.0,1.96807,0.00171,408.852,0.108,0.0333,0.0018,140.000,45.000,31381.14499,1.96884,409.019,30.766,45.073,45.000,0.00,0.06,-272.85,-272.89,0,521,-940,15.7,1.5,-36.5,16.0,1.6,-35.7,0.55,2.14,-23.0,22.3
2016-12-05 00:24:00,0.0,1.96391,0.00100,408.704,0.041,0.0329,0.0019,139.999,45.000,31377.63349,1.96449,408.865,30.752,45.073,45.000,0.00,0.07,-272.84,-272.88,-1,521,-940,15.7,1.5,-36.5,16.0,1.6,-35.7,0.55,1.89,-23.0,22.3
2016-12-05 00:25:00,0.0,1.96715,0.00052,408.736,0.059,0.0326,0.0015,139.998,45.000,31377.39787,1.96769,408.893,30.748,45.073,45.000,0.00,0.07,-272.86,-272.89,0,521,-940,15.7,1.5,-36.5,16.0,1.6,-35.8,0.55,2.15,-23.0,22.4
2016-12-05 00:26:00,0.0,1.96861,0.00020,409.022,0.073,0.0328,0.0022,139.998,45.000,31378.82478,1.96924,409.179,30.726,45.073,45.000,0.00,0.07,-272.86,-272.89,-1,521,-940,15.7,1.5,-36.6,16.1,1.6,-35.9,0.55,1.89,-23.0,22.4
2016-12-05 00:27:00,0.0,1.96642,0.00157,408.974,0.135,0.0325,0.0020,140.000,45.000,31380.39641,1.96720,409.140,30.707,45.073,45.000,0.00,0.07,-272.86,-272.89,0,521,-940,15.7,1.5,-36.7,16.1,1.6,-35.9,0.55,2.13,-23.0,22.4
2016-12-05 00:28:00,0.0,1.96451,0.00048,408.770,0.039,0.0320,0.0017,139.998,45.000,31380.60748,1.96510,408.927,30.699,45.074,45.000,0.00,0.07,-272.85,-272.88,-1,521,-940,15.7,1.5,-36.8,16.1,1.6,-35.9,0.55,1.89,-23.0,22.4
2016-12-05 00:29:00,0.0,1.96517,0.00066,408.833,0.054,0.0320,0.0015,140.000,45.000,31378.83890,1.96574,408.989,30.730,45.074,45.000,0.00,0.06,-272.86,-272.89,0,521,-940,15.7,1.4,-36.9,16.1,1.5,-36.1,0.55,2.14,-22.9,22.4
2016-12-05 00:30:00,0.0,1.96331,0.00202,408.831,0.072,0.0318,0.0021,140.000,45.000,31380.21444,1.96413,408.990,30.746,45.074,45.000,0.00,0.07,-272.86,-272.89,-0,521,-940,15.7,1.4,-36.8,16.0,1.5,-36.1,0.55,1.90,-23.0,22.3
2016-12-05 00:31:00,0.0,1.96212,0.00087,408.733,0.031,0.0315,0.0018,140.001,45.000,31379.56976,1.96268,408.888,30.750,45.073,45.000,0.00,0.07,-272.85,-272.88,-0,521,-940,15.7,1.4,-36.9,16.0,1.5,-36.3,0.55,2.14,-22.9,22.4
2016-12-05 00:32:00,0.0,1.96216,0.00067,408.647,0.043,0.0320,0.0014,140.000,45.000,31379.44350,1.96272,408.807,30.759,45.073,45.000,0.00,0.07,-272.85,-272.89,-0,521,-940,15.7,1.4,-37.0,16.1,1.5,-36.3,0.55,1.90,-22.9,22.4
2016-12-05 00:33:00,0.0,1.96415,0.00031,408.625,0.042,0.0315,0.0016,140.000,45.000,31379.55450,1.96470,408.779,30.755,45.073,45.000,0.00,0.06,-272.85,-272.89,-1,521,-940,15.7,1.4,-37.0,16.1,1.5,-36.3,0.55,2.12,-23.0,22.3
2016-12-05 00:34:00,0.0,1.96537,0.00055,408.672,0.035,0.0310,0.0012,140.000,45.000,31377.61292,1.96594,408.824,30.756,45.073,45.000,0.00,0.06,-272.85,-272.88,0,521,-940,15.7,1.4,-37.0,16.1,1.5,-36.3,0.55,1.90,-22.9,22.4
2016-12-05 00:35:00,0.0,1.96532,0.00030,408.684,0.033,0.0321,0.0011,140.000,45.000,31378.15081,1.96597,408.842,30.752,45.073,45.000,0.00,0.06,-272.86,-272.89,-1,521,-940,15.7,1.4,-37.0,16.0,1.5,-36.3,0.55,2.13,-22.9,22.4
2016-12-05 00:36:00,0.0,1.96488,0.00049,408.654,0.023,0.0315,0.0011,139.999,45.000,31378.96819,1.96551,408.808,30.750,45.073,45.000,0.00,0.07,-272.85,-272.89,0,521,-940,15.7,1.4,-36.9,16.1,1.5,-36.3,0.55,1.90,-22.9,22.3
2016-12-05 00:37:00,0.0,1.96522,0.00054,408.648,0.032,0.0322,0.0011,140.002,45.000,31378.53970,1.96579,408.804,30.751,45.073,45.000,0.00,0.06,-272.85,-272.89,-1,521,-940,15.7,1.4,-36.8,16.1,1.5,-36.3,0.55,2.12,-22.9,22.4
2016-12-05 00:38:00,0.0,1.96653,0.00071,408.705,0.031,0.0315,0.0018,140.001,45.000,31379.70726,1.96716,408.861,30.772,45.073,45.000,0.00,0.07,-272.85,-272.89,-0,521,-940,15.7,1.4,-36.8,16.1,1.5,-36.3,0.54,1.90,-22.9,22.4
2016-12-05 00:39:00,0.0,1.96617,0.00085,408.668,0.036,0.0318,0.0013,140.001,45.000,31378.73352,1.96672,408.824,30.805,45.073,45.000,0.00,0.06,-272.86,-272.89,-1,521,-940,15.7,1.4,-36.9,16.1,1.5,-36.1,0.55,2.13,-22.9,22.4
2016-12-05 00:40:00,0.0,1.96625,0.00036,408.705,0.034,0.0316,0.0014,140.001,45.000,31379.75300,1.96689,408.861,30.814,45.073,45.000,0.00,0.07,-272.86,-272.88,-0,521,-940,15.7,1.4,-36.8,16.1,1.5,-36.1,0.55,1.90,-22.9,22.4
2016-12-05 00:41:00,0.0,1.96600,0.00061,408.682,0.042,0.0326,0.0015,140.002,45.000,31380.87507,1.96660,408.840,30.832,45.073,45.000,0.00,0.07,-272.85,-272.88,-0,521,-940,15.7,1.5,-36.7,16.1,1.5,-36.1,0.55,2.13,-22.9,22.4
2016-12-05 00:42:00,0.0,1.96428,0.00140,408.676,0.039,0.0314,0.0017,139.999,45.000,31380.97497,1.96505,408.833,30.865,45.073,44.999,0.00,0.07,-272.85,-272.89,-1,521,-941,15.7,1.4,-36.9,16.1,1.5,-36.1,0.55,1.90,-22.9,22.4
2016-12-05 00:43:00,0.0,1.96191,0.00049,408.682,0.020,0.0317,0.0015,140.002,45.000,31382.53486,1.96251,408.837,30.837,45.073,44.999,0.00,0.06,-272.86,-272.88,0,521,-940,15.7,1.4,-36.8,16.1,1.5,-36.1,0.55,2.13,-22.9,22.4
2016-12-05 00:44:00,0.0,1.96178,0.00080,408.693,0.026,0.0318,0.0012,139.999,45.000,31382.71018,1.96245,408.848,30.818,45.073,45.000,0.00,0.07,-272.84,-272.88,-1,521,-941,15.7,1.4,-36.9,16.1,1.5,-36.1,0.54,1.89,-22.9,22.4
2016-12-05 00:45:00,0.0,1.96195,0.00171,408.713,0.027,0.0326,0.0018,140.002,45.000,31383.96856,1.96241,408.872,30.773,45.073,45.000,0.00,0.06,-272.86,-272.89,0,521,-941,15.7,1.4,-36.8,16.1,1.5,-36.1,0.55,2.14,-22.9,22.4
2016-12-05 00:46:00,0.0,1.96561,0.00075,408.720,0.033,0.0326,0.0020,139.997,45.000,31382.24282,1.96628,408.881,30.753,45.073,45.000,0.00,0.06,-272.86,-272.89,-1,521,-941,15.7,1.4,-36.8,16.1,1.5,-36.0,0.55,1.90,-22.9,22.4
2016-12-05 00:47:00,0.0,1.96266,0.00173,408.697,0.036,0.0322,0.0017,140.001,45.000,31382.41066,1.96344,408.854,30.747,45.074,45.001,0.00,0.07,-272.85,-272.89,-0,521,-941,15.7,1.5,-36.6,16.1,1.5,-36.0,0.55,2.14,-22.9,22.4
2016-12-05 00:48:00,0.0,1.95924,0.00032,408.777,0.035,0.0334,0.0018,139.998,45.000,31381.63963,1.95989,408.940,30.745,45.074,45.001,0.00,0.07,-272.84,-272.88,-0,521,-941,15.7,1.5,-36.5,16.1,1.6,-35.8,0.54,1.89,-22.9,22.4
2016-12-05 00:49:00,0.0,1.95935,0.00034,408.760,0.035,0.0334,0.0019,140.002,45.000,31382.93577,1.96001,408.924,30.743,45.074,45.001,0.00,0.06,-272.86,-272.89,-1,521,-941,15.7,1.5,-36.3,16.1,1.6,-35.7,0.55,2.14,-22.9,22.4
2016-12-05 00:50:00,0.0,1.95887,0.00039,408.708,0.033,0.0336,0.0017,140.000,45.000,31383.57490,1.95953,408.874,30.745,45.074,45.001,0.00,0.06,-272.86,-272.89,0,521,-941,15.7,1.5,-36.3,16.1,1.6,-35.6,0.55,1.88,-22.9,22.4
2016-12-05 00:51:00,0.0,1.95886,0.00040,408.675,0.036,0.0341,0.0018,140.001,45.000,31384.62083,1.95948,408.843,30.750,45.074,45.000,0.00,0.07,-272.85,-272.88,-1,521,-941,15.7,1.5,-36.2,16.1,1.6,-35.6,0.55,2.14,-22.9,22.4
2016-12-05 00:52:00,0.0,1.95869,0.00038,408.656,0.028,0.0336,0.0014,140.001,45.000,31385.25203,1.95937,408.819,30.750,45.074,45.000,0.00,0.07,-272.85,-272.89,0,521,-940,15.7,1.6,-36.1,16.1,1.6,-35.5,0.55,1.89,-22.9,22.4
2016-12-05 00:53:00,0.0,1.95821,0.00035,408.650,0.033,0.0346,0.0019,140.000,44.999,31385.73321,1.95889,408.819,30.760,45.073,45.000,0.00,0.06,-272.86,-272.89,-1,521,-941,15.7,1.6,-36.1,16.1,1.6,-35.5,0.55,2.14,-22.9,22.4
2016-12-05 00:54:00,0.0,1.95803,0.00051,408.639,0.052,0.0339,0.0013,140.001,45.000,31387.76782,1.95865,408.808,30.769,45.073,45.000,0.00,0.07,-272.85,-272.88,-0,521,-941,15.7,1.6,-36.0,16.1,1.6,-35.4,0.55,1.89,-22.9,22.4
2016-12-05 00:55:00,0.0,1.95882,0.00040,408.576,0.029,0.0352,0.0016,140.000,45.000,31384.97904,1.95950,408.749,30.807,45.073,45.000,0.00,0.07,-272.86,-272.88,-1,521,-941,15.7,1.6,-35.9,16.1,1.6,-35.4,0.55,2.14,-22.9,22.4
2016-12-05 00:56:00,0.0,1.95841,0.00028,408.570,0.041,0.0344,0.0020,139.998,45.000,31385.05570,1.95909,408.738,30.805,45.073,45.000,0.00,0.06,-272.86,-272.89,-1,521,-941,15.7,1.6,-35.9,16.1,1.6,-35.4,0.55,1.89,-22.9,22.4
2016-12-05 00:57:00,0.0,1.95793,0.00028,408.670,0.031,0.0347,0.0011,140.003,45.000,31386.84538,1.95860,408.840,30.815,45.073,45.000,0.00,0.07,-272.85,-272.88,0,521,-941,15.7,1.6,-35.9,16.1,1.6,-35.3,0.55,2.14,-22.9,22.4
2016-12-05 00:58:00,0.0,1.95815,0.00035,408.619,0.063,0.0345,0.0016,139.999,45.000,31384.23753,1.95882,408.790,30.823,45.073,45.000,0.00,0.07,-272.84,-272.88,-1,521,-941,15.7,1.6,-35.9,16.1,1.6,-35.4,0.55,1.90,-22.9,22.4
2016-12-05 00:59:00,0.0,1.95852,0.00041,408.524,0.037,0.0342,0.0019,139.999,45.000,31386.43418,1.95916,408.691,30.832,45.073,45.000,0.00,0.06,-272.85,-272.88,0,521,-941,15.7,1.6,-35.9,16.1,1.6,-35.4,0.55,2.13,-22.9,22.4
2016-12-05 01:00:00,0.0,1.95795,0.00045,408.609,0.046,0.0339,0.0016,140.001,45.000,31387.71631,1.95865,408.774,30.869,45.073,45.000,0.00,0.06,-272.86,-272.89,-1,521,-941,15.7,1.6,-36.1,16.1,1.6,-35.4,0.55,1.91,-22.9,22.4
2016-12-05 01:01:00,0.0,1.95762,0.00033,408.656,0.035,0.0336,0.0019,139.999,45.000,31388.37136,1.95827,408.819,30.872,45.073,45.000,0.00,0.07,-272.85,-272.88,-0,521,-941,15.7,1.5,-36.1,16.1,1.6,-35.6,0.54,2.12,-22.9,22.4
2016-12-05 01:02:00,0.0,1.95732,0.00043,408.727,0.039,0.0341,0.0018,140.000,45.000,31386.44127,1.95796,408.896,30.868,45.073,45.000,0.00,0.06,-272.85,-272.89,-0,521,-941,15.7,1.6,-36.1,16.1,1.6,-35.5,0.55,1.92,-22.9,22.4
2016-12-05 01:03:00,0.0,1.95772,0.00042,408.626,0.026,0.0343,0.0026,140.001,45.000,31387.53621,1.95836,408.795,30.876,45.073,45.000,0.00,0.06,-272.86,-272.89,-1,521,-941,15.7,1.6,-36.0,16.1,1.6,-35.4,0.55,2.11,-22.9,22.5
2016-12-05 01:04:00,0.0,1.95852,0.00054,408.554,0.042,0.0342,0.0014,140.002,45.000,31387.77523,1.95919,408.721,30.875,45.073,45.000,0.00,0.07,-272.84,-272.89,0,521,-941,15.7,1.6,-36.1,16.1,1.6,-35.4,0.55,1.94,-22.9,22.4
2016-12-05 01:05:00,0.0,1.96105,0.00214,408.523,0.052,0.0334,0.0016,140.000,45.000,31386.11762,1.96149,408.689,30.876,45.073,45.000,0.00,0.07,-272.85,-272.88,-1,521,-941,15.8,1.5,-36.3,16.1,1.6,-35.5,0.54,2.08,-22.9,22.4
2016-12-05 01:06:00,0.0,1.96512,0.00070,408.487,0.038,0.0334,0.0011,140.000,45.000,31387.34064,1.96571,408.651,30.922,45.073,45.000,0.00,0.06,-272.86,-272.89,0,521,-941,15.8,1.5,-36.5,16.1,1.6,-35.7,0.55,1.96,-22.9,22.5
2016-12-05 01:07:00,0.0,1.96487,0.00052,408.499,0.025,0.0320,0.0015,139.997,45.000,31387.99304,1.96552,408.655,30.949,45.073,45.000,0.00,0.07,-272.86,-272.88,-1,521,-941,15.8,1.5,-36.6,16.1,1.6,-35.9,0.54,2.05,-22.9,22.5
2016-12-05 01:08:00,0.0,1.96364,0.00067,408.497,0.034,0.0323,0.0023,139.999,45.000,31387.05475,1.96434,408.656,30.982,45.073,45.000,0.00,0.07,-272.84,-272.88,-0,521,-941,15.8,1.4,-36.9,16.1,1.5,-36.0,0.55,1.99,-22.8,22.4
2016-12-05 01:09:00,0.0,1.96219,0.00053,408.496,0.027,0.0305,0.0020,140.000,45.000,31387.60333,1.96279,408.647,30.985,45.073,44.999,0.00,0.07,-272.86,-272.89,-0,521,-941,15.8,1.4,-37.0,16.1,1.5,-36.2,0.54,2.02,-22.9,22.5
2016-12-05 01:10:00,0.0,1.96037,0.00149,408.482,0.042,0.0307,0.0021,140.001,45.000,31387.72910,1.96108,408.631,30.982,45.073,44.999,0.00,0.06,-272.86,-272.89,-1,521,-941,15.8,1.4,-37.2,16.1,1.5,-36.4,0.55,2.03,-22.9,22.5
2016-12-05 01:11:00,0.0,1.95764,0.00049,408.588,0.044,0.0306,0.0020,140.001,45.000,31388.07646,1.95828,408.738,30.976,45.073,45.000,0.00,0.07,-272.86,-272.87,0,521,-941,15.8,1.4,-37.4,16.1,1.5,-36.5,0.54,1.99,-22.8,22.5
2016-12-05 01:12:00,0.0,1.95741,0.00030,408.634,0.068,0.0303,0.0019,140.000,45.000,31389.34811,1.95797,408.781,30.966,45.073,45.000,0.00,0.06,-272.85,-272.88,-1,521,-941,15.8,1.4,-37.4,16.1,1.4,-36.6,0.55,2.06,-22.8,22.5
2016-12-05 01:13:00,0.0,1.95700,0.00039,408.722,0.037,0.0308,0.0020,140.002,45.000,31389.71909,1.95762,408.873,30.983,45.073,45.000,0.00,0.06,-272.86,-272.89,0,521,-941,15.8,1.3,-37.6,16.1,1.4,-36.8,0.54,1.96,-22.8,22.5
2016-12-05 01:14:00,0.0,1.95700,0.00039,408.699,0.042,0.0301,0.0019,140.002,45.000,31391.35727,1.95757,408.847,30.991,45.073,45.000,0.00,0.07,-272.85,-272.89,-1,521,-941,15.8,1.3,-37.6,16.1,1.4,-36.8,0.55,2.09,-22.8,22.5
2016-12-05 01:15:00,0.0,1.95742,0.00035,408.664,0.028,0.0298,0.0016,139.999,45.000,31389.01190,1.95800,408.811,30.998,45.073,45.000,0.00,0.07,-272.85,-272.88,-1,521,-941,15.8,1.3,-37.6,16.1,1.4,-36.8,0.54,1.93,-22.8,22.5
2016-12-05 01:16:00,0.0,1.95711,0.00040,408.631,0.022,0.0297,0.0016,139.997,45.000,31388.99126,1.95767,408.778,30.992,45.073,45.000,0.00,0.06,-272.85,-272.89,-0,521,-941,15.8,1.3,-37.5,16.1,1.4,-36.8,0.55,2.11,-22.8,22.5
2016-12-05 01:17:00,0.0,1.95712,0.00030,408.598,0.036,0.0305,0.0019,139.998,45.000,31389.31879,1.95769,408.748,30.975,45.073,45.000,0.00,0.07,-272.85,-272.88,-1,521,-941,15.8,1.3,-37.6,16.2,1.4,-36.8,0.54,1.90,-22.8,22.5
2016-12-05 01:18:00,0.0,1.95729,0.00032,408.598,0.042,0.0299,0.0014,140.000,45.000,31390.11089,1.95788,408.743,30.941,45.073,45.000,0.00,0.07,-272.85,-272.88,0,521,-941,15.8,1.3,-37.6,16.1,1.4,-36.8,0.55,2.14,-22.8,22.5
2016-12-05 01:19:00,0.0,1.95758,0.00050,408.605,0.036,0.0294,0.0020,139.997,45.000,31389.44580,1.95814,408.750,30.940,45.074,45.000,0.00,0.07,-272.86,-272.89,-1,521,-941,15.8,1.3,-37.6,16.1,1.4,-36.8,0.55,1.89,-22.8,22.5
2016-12-05 01:20:00,0.0,1.95804,0.00044,408.736,0.055,0.0298,0.0012,140.001,45.000,31389.49709,1.95858,408.881,30.941,45.074,45.000,0.00,0.06,-272.86,-272.90,-0,521,-941,15.8,1.3,-37.5,16.2,1.4,-36.8,0.55,2.14,-22.8,22.5
2016-12-05 01:21:00,0.0,1.95795,0.00043,408.737,0.025,0.0297,0.0018,139.999,45.000,31388.78796,1.95854,408.882,30.940,45.074,45.001,0.00,0.07,-272.84,-272.88,-0,521,-941,15.8,1.3,-37.6,16.2,1.4,-36.8,0.54,1.89,-22.8,22.5
2016-12-05 01:22:00,0.0,1.95751,0.00027,408.696,0.040,0.0298,0.0017,140.004,45.000,31390.51076,1.95809,408.845,30.940,45.074,45.000,0.00,0.07,-272.86,-272.88,-1,521,-941,15.8,1.3,-37.5,16.2,1.4,-36.8,0.55,2.13,-22.8,22.5
2016-12-05 01:23:00,0.0,1.95824,0.00057,408.659,0.036,0.0293,0.0016,140.000,45.000,31389.91909,1.95878,408.803,30.912,45.074,45.000,0.00,0.07,-272.86,-272.89,0,521,-941,15.9,1.3,-37.5,16.2,1.4,-36.7,0.55,1.90,-22.8,22.5
2016-12-05 01:24:00,0.0,1.95929,0.00041,408.534,0.048,0.0299,0.0020,140.002,45.000,31389.97714,1.95984,408.681,30.892,45.074,45.001,0.00,0.06,-272.86,-272.89,-1,521,-941,15.9,1.3,-37.5,16.2,1.4,-36.8,0.54,2.11,-22.8,22.5
2016-12-05 01:25:00,0.0,1.95921,0.00025,408.439,0.066,0.0300,0.0024,139.998,45.000,31388.93519,1.95978,408.589,30.898,45.074,45.001,0.00,0.07,-272.85,-272.88,-0,521,-941,15.9,1.3,-37.5,16.2,1.4,-36.8,0.55,1.93,-22.8,22.5
2016-12-05 01:26:00,0.0,1.95790,0.00049,408.398,0.033,0.0304,0.0018,140.001,45.000,31392.69088,1.95855,408.547,30.886,45.074,45.001,0.00,0.06,-272.86,-272.89,-1,521,-941,15.8,1.3,-37.6,16.2,1.4,-36.7,0.55,2.08,-22.8,22.5
2016-12-05 01:27:00,0.0,1.95717,0.00048,408.433,0.036,0.0296,0.0019,140.001,45.000,31392.07532,1.95776,408.578,30.880,45.074,45.001,0.00,0.06,-272.85,-272.88,-1,521,-941,15.8,1.3,-37.5,16.2,1.4,-36.7,0.55,1.98,-22.8,22.5
2016-12-05 01:28:00,0.0,1.95618,0.00029,408.451,0.032,0.0290,0.0018,140.002,45.000,31394.11159,1.95678,408.592,30.885,45.074,45.000,0.00,0.07,-272.85,-272.88,-0,521,-941,15.8,1.3,-37.8,16.2,1.4,-36.9,0.54,2.03,-22.8,22.5
2016-12-05 01:29:00,0.0,1.95616,0.00042,408.526,0.026,0.0295,0.0018,140.001,45.000,31393.54275,1.95674,408.671,30.904,45.074,45.000,0.00,0.07,-272.85,-272.90,-1,521,-941,15.8,1.3,-37.8,16.2,1.4,-37.0,0.55,2.02,-22.8,22.5
2016-12-05 01:30:00,0.0,1.95559,0.00064,408.538,0.067,0.0287,0.0014,140.000,45.000,31392.87839,1.95607,408.676,30.909,45.073,45.000,0.00,0.07,-272.85,-272.89,0,521,-941,15.8,1.3,-37.8,16.2,1.4,-37.0,0.54,1.98,-22.8,22.5
2016-12-05 01:31:00,0.0,1.95780,0.00065,408.706,0.035,0.0290,0.0018,139.998,45.000,31392.73494,1.95830,408.847,30.906,45.073,45.000,0.00,0.06,-272.85,-272.89,-1,521,-941,15.9,1.3,-37.8,16.2,1.4,-36.9,0.55,2.07,-22.8,22.5
2016-12-05 01:32:00,0.0,1.95935,0.00099,408.761,0.058,0.0293,0.0017,140.001,45.000,31392.03138,1.95986,408.904,30.931,45.073,45.000,0.00,0.07,-272.85,-272.88,-1,521,-941,15.9,1.3,-38.0,16.2,1.4,-36.9,0.54,1.93,-22.8,22.5
2016-12-05 01:33:00,0.0,1.95906,0.00102,408.738,0.047,0.0285,0.0021,140.002,45.000,31394.04955,1.95960,408.879,30.938,45.073,45.000,0.00,0.06,-272.86,-272.89,-0,521,-941,15.9,1.3,-37.9,16.2,1.4,-36.9,0.55,2.11,-22.8,22.5
2016-12-05 01:34:00,0.0,1.96166,0.00083,408.803,0.034,0.0295,0.0018,139.999,45.000,31391.74525,1.96222,408.946,30.947,45.073,45.000,0.00,0.07,-272.86,-272.89,-1,521,-941,15.9,1.3,-37.9,16.2,1.4,-36.9,0.54,1.90,-22.8,22.5
2016-12-05 01:35:00,0.0,1.95976,0.00099,408.720,0.069,0.0288,0.0012,139.999,45.000,31392.21938,1.96041,408.865,30.983,45.073,45.000,0.00,0.07,-272.85,-272.89,0,521,-941,15.9,1.3,-37.9,16.2,1.4,-37.0,0.55,2.14,-22.8,22.5
2016-12-05 01:36:00,0.0,1.95859,0.00113,408.626,0.037,0.0284,0.0016,140.001,45.000,31394.55986,1.95910,408.765,30.993,45.073,44.999,0.00,0.06,-272.86,-272.89,-1,521,-941,15.9,1.3,-37.9,16.2,1.4,-37.1,0.55,1.89,-22.8,22.5
2016-12-05 01:37:00,0.0,1.96254,0.00100,408.722,0.043,0.0291,0.0021,140.002,45.000,31396.73919,1.96301,408.862,30.998,45.073,45.000,0.00,0.06,-272.86,-272.89,-0,521,-941,15.9,1.3,-37.9,16.2,1.4,-37.1,0.54,2.14,-22.8,22.5
2016-12-05 01:38:00,0.0,1.96213,0.00079,408.794,0.031,0.0286,0.0017,140.000,45.000,31393.12158,1.96264,408.934,30.997,45.073,45.000,0.00,0.07,-272.85,-272.88,-0,521,-941,15.9,1.3,-38.0,16.2,1.4,-37.1,0.54,1.90,-22.8,22.6
2016-12-05 01:39:00,0.0,1.96313,0.00118,408.836,0.060,0.0285,0.0015,139.999,45.000,31392.38636,1.96367,408.975,30.997,45.073,45.000,0.00,0.07,-272.86,-272.88,-1,521,-941,15.9,1.3,-38.1,16.2,1.4,-37.1,0.54,2.11,-22.7,22.5
2016-12-05 01:40:00,0.0,1.96233,0.00157,408.816,0.077,0.0289,0.0014,140.000,45.000,31393.36254,1.96298,408.960,30.999,45.073,45.000,0.00,0.06,-272.85,-272.89,0,521,-941,15.9,1.2,-38.1,16.3,1.4,-37.1,0.55,1.95,-22.8,22.6
2016-12-05 01:41:00,0.0,1.96165,0.00105,408.901,0.083,0.0279,0.0019,139.999,45.000,31394.15987,1.96221,409.036,31.000,45.073,45.000,0.00,0.07,-272.85,-272.89,-1,521,-941,15.9,1.2,-38.1,16.3,1.3,-37.4,0.54,2.05,-22.7,22.6
2016-12-05 01:42:00,0.0,1.96025,0.00088,408.939,0.040,0.0279,0.0014,140.001,45.000,31394.84853,1.96085,409.076,31.012,45.073,45.000,0.00,0.06,-272.84,-272.89,-0,521,-941,15.9,1.2,-38.1,16.2,1.3,-37.3,0.55,1.99,-22.7,22.6
2016-12-05 01:43:00,0.0,1.95757,0.00048,409.021,0.035,0.0286,0.0022,140.001,45.000,31395.27240,1.95817,409.159,31.011,45.073,45.000,0.00,0.06,-272.86,-272.89,-0,521,-941,15.9,1.3,-38.1,16.3,1.3,-37.3,0.54,2.00,-22.7,22.6
2016-12-05 01:44:00,0.0,1.95684,0.00033,409.149,0.064,0.0281,0.0020,140.000,45.000,31394.81745,1.95739,409.286,31.025,45.073,45.000,0.00,0.07,-272.85,-272.89,-1,522,-941,15.9,1.3,-38.1,16.3,1.3,-37.3,0.55,2.06,-22.8,22.6
2016-12-05 01:45:00,0.0,1.95722,0.00045,409.090,0.088,0.0289,0.0018,139.998,45.000,31395.38568,1.95777,409.230,31.008,45.073,45.000,0.00,0.07,-272.85,-272.89,0,521,-941,15.9,1.2,-38.1,16.3,1.3,-37.3,0.54,1.94,-22.7,22.6